15 daagse weersverwachting Sankt Gallen (CH)

  • Overzicht
  • Per uur
  • 15 dagen
  • Extra
  • Vergelijk
  • Kaarten
  • Dagkaart
  • Meer »
  • Info
  • Statistieken
  • Directe link
    Temp 6h Neerslag Wind  
 05:27     21:22    Daglengte: 15:55 Vandaag
08:00
17°
13.3 mm
2
14:00
18°
8.9 mm
2
20:00
19°
9.7 mm
1
 05:27     21:23    Daglengte: 15:56 Morgen
02:00
15°
2.1 mm
1
08:00
16°
 
1
14:00
19°
12.0 mm
2
20:00
18°
15.1 mm
1
 05:27     21:23    Daglengte: 15:56 Zaterdag 22 Jun
02:00
15°
3.6 mm
1
08:00
16°
 
1
14:00
19°
16.1 mm
1
warningclass
20:00
17°
55.4 mm
2
warningclass
Locatie info
Region: Sankt Gallen
Latitude: 47.4264°N
Longitude: 9.3737°E
684 masl
Postcode: 9000
Temp/Neerslag /Baro Onweer/Dauwpunt
    Temp Baro 1h Neerslag Dauwpunt Wind UV Bewolking  
 05:27     21:22    Daglengte: 15:55 Vandaag
04:00
17°
1013.8 hPa 8.8 mm
49%
11.6°
3
Windvlaag: 2.3 km/h
55%
05:00
17°
1013.7 hPa 4.5 mm
19%
11.6°
3
Windvlaag: 2 km/h
78%
06:00
16°
1014.1 hPa
17%
12.4°
2
Windvlaag: 2.3 km/h
39%
07:00
17°
1014.4 hPa
35%
13.2°
2
Windvlaag: 2.3 km/h
64%
08:00
17°
1014.5 hPa
82%
14.1°
2
Windvlaag: 2.4 km/h
63%
09:00
18°
1014.7 hPa
82%
14.6°
2
Windvlaag: 1.8 km/h
73%
10:00
19°
1014.6 hPa 1.4 mm
82%
14.2°
1
Windvlaag: 0.9 km/h
70% warningclass
11:00
19°
1014.8 hPa 1.9 mm
82%
15.2°
1
Windvlaag: 0.5 km/h
78% warningclass
12:00
19°
1014.7 hPa 1.8 mm
82%
15.1°
1
Windvlaag: 0.5 km/h
80% warningclass
13:00
19°
1014.9 hPa 1.8 mm
82%
15.5°
2
Windvlaag: 0.8 km/h
86% warningclass
14:00
18°
1014.8 hPa 1.9 mm
82%
15.7°
2
Windvlaag: -0.7 km/h
81%
15:00
19°
1014.8 hPa 2.3 mm
82%
15.2°
2
Windvlaag: -1.4 km/h
82%
16:00
19°
1014.7 hPa 2.9 mm
82%
14.7°
2
Windvlaag: -1.4 km/h
33% warningclass
17:00
20°
1014.6 hPa 1.9 mm
80%
15.3°
2
Windvlaag: -1.4 km/h
60%
18:00
20°
1014.7 hPa 2.6 mm
71%
15.5°
2
Windvlaag: -1.3 km/h
43%
19:00
19°
1014.8 hPa
27%
15.4°
2
Windvlaag: -1.2 km/h
18%
20:00
19°
1015.2 hPa
23%
15.8°
1
Windvlaag: -0.7 km/h
36%
21:00
18°
1015.7 hPa 2.1 mm
67%
15.1°
1
Windvlaag: -0.4 km/h
23%
22:00
16°
1016.3 hPa
57%
14.1°
1
Windvlaag: 0.3 km/h
56%
23:00
16°
1016.5 hPa
56%
13.7°
1
Windvlaag: 1 km/h
57%
 05:27     21:23    Daglengte: 15:56 Morgen
00:00
16°
1016.9 hPa
17%
13.4°
1
Windvlaag: 0.9 km/h
57%
01:00
15°
1017.0 hPa
15%
13.2°
1
Windvlaag: 0.7 km/h
29%
02:00
15°
1017.0 hPa
15%
12.2°
1
Windvlaag: 0.1 km/h
26%
03:00
15°
1017.2 hPa
15%
12.4°
1
Windvlaag: 0 km/h
49%
04:00
14°
1017.2 hPa
15%
12.1°
1
Windvlaag: 0.2 km/h
29%
05:00
14°
1017.3 hPa
15%
11.8°
1
Windvlaag: -0.1 km/h
31%
06:00
14°
1017.4 hPa
16%
12.1°
1
Windvlaag: -1.3 km/h
33%
07:00
15°
1017.6 hPa
18%
13.1°
1
Windvlaag: -1.4 km/h
38%
08:00
16°
1017.8 hPa
23%
14.2°
1
Windvlaag: -1.4 km/h
46%
09:00
17°
1017.9 hPa 2.0 mm
34%
14.4°
1
Windvlaag: -1.1 km/h
44%
10:00
17°
1018.2 hPa 2.0 mm
78%
14.1°
2
Windvlaag: -1.3 km/h
57%
11:00
18°
1018.0 hPa 1.5 mm
79%
14.6°
2
Windvlaag: -1.6 km/h
59%
12:00
19°
1017.8 hPa 2.3 mm
82%
14.7°
2
Windvlaag: -2 km/h
69%
13:00
19°
1017.6 hPa 2.3 mm
82%
14.1°
2
Windvlaag: -2.1 km/h
65%
14:00
19°
1017.4 hPa 1.8 mm
82%
14.0°
2
Windvlaag: -2.1 km/h
68%
15:00
20°
1017.1 hPa 2.1 mm
81%
15.0°
2
Windvlaag: -2.1 km/h
66%
16:00
19°
1016.8 hPa 1.9 mm
82%
15.5°
2
Windvlaag: -2.2 km/h
70%
17:00
19°
1016.8 hPa 2.2 mm
82%
15.3°
2
Windvlaag: -2 km/h
76%
18:00
18°
1016.9 hPa 2.4 mm
82%
15.1°
2
Windvlaag: -1.7 km/h
74%
19:00
18°
1017.0 hPa 3.3 mm
81%
14.8°
1
Windvlaag: -1.4 km/h
79% warningclass
20:00
18°
1017.1 hPa 3.1 mm
71%
15.2°
1
Windvlaag: -1.1 km/h
82%
21:00
17°
1017.2 hPa
20%
14.9°
1
Windvlaag: -1.2 km/h
85%
22:00
16°
1017.5 hPa
18%
14.6°
1
Windvlaag: -0.4 km/h
83%
23:00
16°
1018.3 hPa 3.6 mm
74%
14.8°
1
Windvlaag: 0.5 km/h
89%
 05:27     21:23    Daglengte: 15:56 Zaterdag 22 Jun
00:00
16°
1017.9 hPa
21%
14.7°
1
Windvlaag: 1.1 km/h
69%
01:00
15°
1017.6 hPa
22%
13.9°
1
Windvlaag: 0.9 km/h
74%
02:00
15°
1017.4 hPa
25%
13.3°
1
Windvlaag: 1.2 km/h
77%
03:00
15°
1017.1 hPa
75%
13.5°
1
Windvlaag: 1 km/h
63%
04:00
15°
1016.9 hPa
40%
13.5°
1
Windvlaag: 1.3 km/h
97%
05:00
15°
1016.6 hPa
40%
13.0°
1
Windvlaag: 1.8 km/h
91%
06:00
14°
1016.4 hPa
38%
12.5°
1
Windvlaag: 1.2 km/h
96%
07:00
15°
1016.4 hPa
38%
13.1°
1
Windvlaag: 0.7 km/h
95%
08:00
16°
1016.5 hPa
39%
13.5°
1
Windvlaag: 0.6 km/h
99%
09:00
17°
1016.6 hPa
33%
13.9°
1
Windvlaag: 1.9 km/h
91%
10:00
17°
1016.3 hPa
46%
14.2°
1
Windvlaag: 1.9 km/h
79%
11:00
18°
1016.1 hPa
49%
14.3°
1
Windvlaag: 2.2 km/h
72%
12:00
18°
1015.9 hPa
59%
14.6°
1
Windvlaag: 2.4 km/h
75%
13:00
19°
1015.9 hPa 7.0 mm
99%
14.8°
1
Windvlaag: 2.5 km/h
74% warningclass
14:00
19°
1015.8 hPa 9.0 mm
100%
14.6°
1
Windvlaag: 0.7 km/h
91% warningclass
15:00
19°
1015.8 hPa 8.3 mm
100%
14.8°
1
Windvlaag: 2.6 km/h
97% warningclass
16:00
18°
1015.8 hPa 9.3 mm
100%
14.7°
2
Windvlaag: 12.8 km/h
90% warningclass
17:00
18°
1015.6 hPa 9.2 mm
99%
14.7°
2
Windvlaag: 7.4 km/h
83% warningclass
18:00
18°
1015.9 hPa 9.3 mm
100%
14.8°
2
Windvlaag: 3.2 km/h
83% warningclass
19:00
17°
1016.1 hPa 9.7 mm
100%
15.0°
1
Windvlaag: 2.6 km/h
86% warningclass
20:00
17°
1016.3 hPa 9.6 mm
100%
15.2°
2
Windvlaag: 0.4 km/h
89% warningclass
21:00
16°
1016.6 hPa 9.1 mm
99%
14.8°
2
Windvlaag: 2.7 km/h
89% warningclass
22:00
16°
1016.9 hPa 8.8 mm
96%
14.5°
2
Windvlaag: 2.8 km/h
83% warningclass
23:00
16°
1017.1 hPa 8.5 mm
86%
14.5°
2
Windvlaag: 2.6 km/h
76% warningclass
 05:27     21:23    Daglengte: 15:56 Zondag 23 Jun
00:00
16°
1017.3 hPa 8.2 mm
84%
14.3°
2
Windvlaag: 3.4 km/h
89%
01:00
15°
1017.5 hPa 8.2 mm
84%
14.1°
2
Windvlaag: 3.4 km/h
81%
02:00
15°
1017.5 hPa
34%
13.7°
2
Windvlaag: 0.5 km/h
61%
03:00
15°
1018.3 hPa   14.1°
2
Windvlaag: 0 km/h
100%
Temp/Neerslag /Baro Onweer/Dauwpunt
    Temp Baro Neerslag Dauwpunt Wind Bewolking  
 05:27     21:22    Daglengte: 15:55 Vandaag
05:00
17°
1013.7 hPa 13.3 mm 11.6°
3
78%
08:00
17°
1014.5 hPa   14.1°
2
63%
11:00
19°
1014.8 hPa 3.3 mm 15.2°
1
78% warningclass
14:00
18°
1014.8 hPa 5.6 mm 15.7°
2
81%
17:00
20°
1014.6 hPa 7.1 mm 15.3°
2
60%
20:00
19°
1015.2 hPa 2.6 mm 15.8°
1
36%
23:00
16°
1016.5 hPa 2.1 mm 13.7°
1
57%
 05:27     21:23    Daglengte: 15:56 Morgen
02:00
15°
1017.0 hPa   12.2°
1
26%
05:00
14°
1017.3 hPa   11.8°
1
31%
08:00
16°
1017.8 hPa   14.2°
1
46%
11:00
18°
1018.0 hPa 5.6 mm 14.6°
2
59%
14:00
19°
1017.4 hPa 6.4 mm 14.0°
2
68%
17:00
19°
1016.8 hPa 6.3 mm 15.3°
2
76%
20:00
18°
1017.1 hPa 8.8 mm 15.2°
1
82%
23:00
16°
1018.3 hPa 3.6 mm 14.8°
1
89%
 05:27     21:23    Daglengte: 15:56 Zaterdag 22 Jun
02:00
15°
1017.4 hPa   13.3°
1
77%
05:00
15°
1016.6 hPa   13.0°
1
91%
08:00
16°
1016.5 hPa   13.5°
1
99%
11:00
18°
1016.1 hPa   14.3°
1
72%
14:00
19°
1015.8 hPa 16.1 mm 14.6°
1
91% warningclass
17:00
18°
1015.6 hPa 26.8 mm 14.7°
2
83% warningclass
20:00
17°
1016.3 hPa 28.7 mm 15.2°
2
89% warningclass
23:00
16°
1017.1 hPa 26.4 mm 14.5°
2
76% warningclass
 05:27     21:23    Daglengte: 15:56 Zondag 23 Jun
02:00
15°
1017.5 hPa 24.5 mm 13.7°
2
61%
05:00
15°
1018.6 hPa 31.2 mm 14.3°
1
92%
08:00
16°
1019.0 hPa 31.2 mm 14.7°
1
92%
11:00
18°
1019.0 hPa 31.2 mm 15.4°
2
63%
14:00
20°
1019.0 hPa 31.2 mm 15.9°
2
35%
17:00
20°
1019.0 hPa 31.2 mm 16.1°
2
24%
20:00
20°
1019.2 hPa 31.2 mm 16.3°
2
13%
23:00
17°
1019.6 hPa 31.2 mm 14.5°
1
6%
 05:28     21:23    Daglengte: 15:55 Maandag 24 Jun
02:00
15°
1019.8 hPa 31.2 mm 12.9°
1
0%
05:00
16°
1019.9 hPa 31.2 mm 13.8°
1
4%
08:00
17°
1020.0 hPa 31.2 mm 15.0°
0
9%
11:00
21°
1020.1 hPa 31.2 mm 16.1°
1
8%
14:00
24°
1020.2 hPa 31.2 mm 16.5°
2
7%
17:00
24°
1020.3 hPa 31.2 mm 17.9°
1
4%
20:00
23°
1020.4 hPa 31.2 mm 19.1°
1
0%
23:00
20°
1021.0 hPa 31.2 mm 16.3°
1
0%
 05:28     21:23    Daglengte: 15:55 Dinsdag 25 Jun
02:00
18°
1021.4 hPa 31.2 mm 13.7°
1
0%
05:00
18°
1021.6 hPa 31.2 mm 14.7°
1
0%
08:00
19°
1021.9 hPa 31.2 mm 16.0°
1
0%
11:00
23°
1021.8 hPa 31.2 mm 18.0°
1
0%
14:00
26°
1021.8 hPa 31.2 mm 19.7°
2
0%
17:00
26°
1021.7 hPa 31.2 mm 19.9°
1
0%
20:00
25°
1021.6 hPa 31.2 mm 20.2°
1
0%
23:00
22°
1021.8 hPa 31.2 mm 16.5°
1
0%
 05:28     21:23    Daglengte: 15:55 Woensdag 26 Jun
02:00
19°
1021.7 hPa 31.2 mm 12.9°
1
0%
05:00
19°
1021.7 hPa 31.2 mm 14.6°
1
6%
08:00
20°
1021.7 hPa 31.2 mm 16.7°
1
11%
11:00
24°
1021.5 hPa 31.2 mm 19.2°
1
9%
14:00
28°
1021.4 hPa 31.2 mm 21.4°
1
6%
17:00
27°
1021.0 hPa 31.2 mm 21.5°
1
5%
20:00
26°
1020.8 hPa 31.2 mm 21.7°
1
3%
23:00
23°
1020.7 hPa 31.2 mm 18.2°
1
1%
 05:29     21:23    Daglengte: 15:54 Donderdag 27 Jun
02:00
19°
1020.4 hPa 62.5 mm 15.0°
1
0%
08:00
23°
1020.3 hPa 62.5 mm 16.3°
1
0%
14:00
30°
1019.7 hPa 62.5 mm 18.8°
1
0%
20:00
27°
1018.7 hPa 62.5 mm 23.6°
1
0%
 05:29     21:23    Daglengte: 15:54 Vrijdag 28 Jun
02:00
21°
1018.8 hPa 62.5 mm 12.3°
1
0%
08:00
24°
1018.3 hPa 62.9 mm 16.4°
1
0%
14:00
30°
1017.0 hPa 65.5 mm 17.9°
2
0%
20:00
27°
1015.5 hPa 69.6 mm 22.4°
1
3%
 05:30     21:23    Daglengte: 15:53 Zaterdag 29 Jun
02:00
22°
1015.4 hPa 84.7 mm 17.3°
1
15%
08:00
21°
1016.5 hPa 88.9 mm 19.6°
0
0%
14:00
27°
1015.1 hPa 92.6 mm 21.9°
2
1%
20:00
25°
1015.1 hPa 96.1 mm 21.7°
1
0%
 05:30     21:23    Daglengte: 15:53 Zondag 30 Jun
02:00
17°
1014.9 hPa 0.6 mm 13.9°
1
39%
08:00
19°
1015.1 hPa 0.2 mm 15.4°
1
37%
14:00
27°
1013.7 hPa 0.6 mm 14.7°
2
21%
20:00
22°
1014.2 hPa 1.8 mm 17.7°
1
35%
 05:31     21:23    Daglengte: 15:52 Maandag 01 Jul
02:00
15°
1015.2 hPa 0.7 mm 13.2°
1
44%
08:00
16°
1015.0 hPa 0.3 mm 14.1°
1
34%
14:00
23°
1013.7 hPa 0.6 mm 11.9°
2
31%
20:00
19°
1014.0 hPa 1.6 mm 14.6°
1
31%
 05:32     21:22    Daglengte: 15:50 Dinsdag 02 Jul
02:00
12°
1015.1 hPa 0.8 mm 10.6°
1
31%
08:00
14°
1014.8 hPa 0.5 mm 11.8°
1
38%
14:00
19°
1013.4 hPa 1.0 mm 10.7°
2
38%
20:00
16°
1013.9 hPa 2.2 mm 11.9°
2
42%
 05:32     21:22    Daglengte: 15:50 Woensdag 03 Jul
02:00
Voelt als: 9.0°
1015.2 hPa 1.7 mm 8.2°
1
32%
08:00
12°
1014.9 hPa 0.4 mm 9.9°
1
39%
14:00
19°
1013.2 hPa 0.7 mm 9.3°
2
35%
20:00
16°
1013.6 hPa 1.6 mm 11.6°
1
41%
 05:33     21:22    Daglengte: 15:49 Donderdag 04 Jul
02:00
1014.6 hPa 2.1 mm 7.9°
1
40%
08:00
11°
1014.6 hPa 1.3 mm 9.4°
1
46%
14:00
18°
1013.7 hPa 1.0 mm 9.0°
2
49%
20:00
15°
1014.5 hPa 1.2 mm 10.6°
1
36%
 05:34     21:21    Daglengte: 15:47 Vrijdag 05 Jul
02:00
Voelt als: 8.2°
1016.1 hPa 0.7 mm 7.4°
1
33%
  CAPE Lifted Index Hail Supercell Tornado SRH 3km CL BTM PRES CL TOP PRES Swiss DWD icon SMHI TS
 05:27     21:22    Daglengte: 15:55 Vandaag
04:00 1 J/kg -1.2 K 0 % 0 % 0 % 0 m²/s² 0 0 -0.57 2
05:00 0 J/kg -1.0 K 0 % 0 % 0 % 0 m²/s² 0 0 0.26 3
06:00 0 J/kg -1.8 K 0 % 0 % 0 % 0 m²/s² 0 0 -0.81 2
07:00 0 J/kg -1.2 K 0 % 0 % 0 % 0 m²/s² 0 0 -0.21 3
08:00 259 J/kg -1.4 K 0 % 0 % 0 % 0 m²/s² 0 0 -0.41 3
09:00 431 J/kg -2.4 K 0 % 0 % 0 % 0 m²/s² 0 0 -1.02 3
10:00 735 J/kg -3.6 K 0 % 0 % 0 % 0 m²/s² 0 0 -2.4 3
11:00 1056 J/kg -4.7 K 0 % 0 % 0 % 0 m²/s² 0 0 -3.65 80
12:00 1355 J/kg -5.3 K 0 % 0 % 0 % 0 m²/s² 0 0 -4.04 95
13:00 887 J/kg -4.4 K 0 % 0 % 0 % 0 m²/s² 0 0 -3.44 95
14:00 1 J/kg 0.7 K 0 % 0 % 0 % 0 m²/s² 0 0 1.15 80
15:00 21 J/kg 0.4 K 0 % 0 % 0 % 0 m²/s² 0 0 0.61 80
16:00 183 J/kg -0.5 K 0 % 0 % 0 % 0 m²/s² 0 0 -0.14 95
17:00 254 J/kg -1.2 K 0 % 0 % 0 % 0 m²/s² 0 0 -0.93 80
18:00 280 J/kg -1.2 K 0 % 0 % 0 % 0 m²/s² 0 0 -0.63 3
19:00 443 J/kg -2.3 K 0 % 0 % 0 % 0 m²/s² 0 0 -1.25 1
20:00 420 J/kg -1.9 K 0 % 0 % 0 % 0 m²/s² 0 0 -0.79 3
21:00 293 J/kg -1.4 K 0 % 0 % 0 % 0 m²/s² 0 0 -0.68 3
22:00 219 J/kg -1.1 K 0 % 0 % 0 % 0 m²/s² 0 0 -0.38 3
23:00 182 J/kg -0.8 K 0 % 0 % 0 % 0 m²/s² 0 0 0.34 3
 05:27     21:23    Daglengte: 15:56 Morgen
00:00 163 J/kg -0.7 K 0 % 0 % 0 % 0 m²/s² 0 0 0.41 3
01:00 87 J/kg -0.4 K 0 % 0 % 0 % 0 m²/s² 0 0 1.61 3
02:00 59 J/kg -0.7 K 0 % 0 % 0 % 0 m²/s² 0 0 1.31 3
03:00 29 J/kg -0.8 K 0 % 0 % 0 % 0 m²/s² 0 0 1.36 3
04:00 3 J/kg -0.7 K 0 % 0 % 0 % 0 m²/s² 0 0 1.31 2
05:00 4 J/kg -0.6 K 0 % 0 % 0 % 0 m²/s² 0 0 0.99 3
06:00 0 J/kg -0.5 K 0 % 0 % 0 % 0 m²/s² 0 0 0.64 1
07:00 0 J/kg -0.4 K 0 % 0 % 0 % 0 m²/s² 0 0 0.65 1
08:00 34 J/kg -0.1 K 0 % 0 % 0 % 0 m²/s² 0 0 0.89 2
09:00 232 J/kg -1.0 K 0 % 0 % 0 % 0 m²/s² 0 0 -0.1 3
10:00 513 J/kg -1.8 K 0 % 0 % 0 % 0 m²/s² 0 0 -0.96 80
11:00 545 J/kg -1.9 K 0 % 0 % 0 % 0 m²/s² 0 0 -0.85 80
12:00 352 J/kg -1.4 K 0 % 0 % 0 % 0 m²/s² 0 0 -0.44 3
13:00 144 J/kg -0.7 K 0 % 0 % 0 % 0 m²/s² 0 0 -0.16 3
14:00 128 J/kg -0.5 K 0 % 0 % 0 % 0 m²/s² 0 0 -0.14 2
15:00 133 J/kg -0.6 K 0 % 0 % 0 % 0 m²/s² 0 0 -0.21 3
16:00 52 J/kg -0.1 K 0 % 0 % 0 % 0 m²/s² 0 0 0.11 3
17:00 149 J/kg -1.4 K 0 % 0 % 0 % 0 m²/s² 0 0 -0.74 80
18:00 67 J/kg -1.2 K 0 % 0 % 0 % 0 m²/s² 0 0 -0.45 80
19:00 0 J/kg -0.6 K 0 % 0 % 0 % 0 m²/s² 0 0 0.12 95
20:00 0 J/kg 0.3 K 0 % 0 % 0 % 0 m²/s² 0 0 1.11 80
21:00 55 J/kg -0.5 K 0 % 0 % 0 % 0 m²/s² 0 0 -0.5 3
22:00 125 J/kg -0.4 K 0 % 0 % 0 % 0 m²/s² 0 0 -0.31 3
23:00 104 J/kg 0.0 K 0 % 0 % 0 % 0 m²/s² 0 0 0.12 80
 05:27     21:23    Daglengte: 15:56 Zaterdag 22 Jun
00:00 30 J/kg -0.7 K 0 % 0 % 0 % 0 m²/s² 0 0 0.17 3
01:00 0 J/kg -0.6 K 0 % 0 % 0 % 0 m²/s² 0 0 0.45 3
02:00 0 J/kg 0.4 K 0 % 0 % 0 % 0 m²/s² 0 0 1.27 3
03:00 0 J/kg 0.6 K 0 % 0 % 0 % 0 m²/s² 0 0 1.32 3
04:00 0 J/kg 0.1 K 0 % 0 % 0 % 0 m²/s² 0 0 0.55 45
05:00 0 J/kg 0.5 K 0 % 0 % 0 % 0 m²/s² 0 0 1.16 3
06:00 0 J/kg 0.6 K 0 % 0 % 0 % 0 m²/s² 0 0 0.63 3
07:00 0 J/kg -0.3 K 0 % 0 % 0 % 0 m²/s² 0 0 -0.18 45
08:00 0 J/kg -1.1 K 0 % 0 % 0 % 0 m²/s² 0 0 -0.56 45
09:00 26 J/kg -1.3 K 0 % 0 % 0 % 0 m²/s² 0 0 -1.12 3
10:00 130 J/kg -2.2 K 0 % 0 % 0 % 0 m²/s² 0 0 -1.99 3
11:00 319 J/kg -3.1 K 0 % 0 % 0 % 0 m²/s² 0 0 -2.89 3
12:00 503 J/kg -3.2 K 0 % 0 % 0 % 0 m²/s² 0 0 -2.81 3
13:00 619 J/kg -2.6 K 0 % 0 % 0 % 0 m²/s² 0 0 -2.3 3
14:00 500 J/kg -3.1 K 0 % 0 % 0 % 0 m²/s² 0 0 -2.05 95
15:00 689 J/kg -3.5 K 0 % 0 % 0 % 0 m²/s² 0 0 -2.75 80
16:00 15 J/kg -0.5 K 0 % 0 % 0 % 0 m²/s² 0 0 0.34 95
17:00 5 J/kg 0.2 K 0 % 0 % 0 % 0 m²/s² 0 0 1.46 95
18:00 220 J/kg -1.4 K 0 % 0 % 0 % 0 m²/s² 0 0 -1.01 95
19:00 172 J/kg -1.1 K 0 % 0 % 0 % 0 m²/s² 0 0 0.07 95
20:00 391 J/kg -1.8 K 0 % 0 % 0 % 0 m²/s² 0 0 -0.36 95
21:00 365 J/kg -1.9 K 0 % 0 % 0 % 0 m²/s² 0 0 -1 95
22:00 280 J/kg -1.5 K 0 % 0 % 0 % 0 m²/s² 0 0 -0.33 95
23:00 256 J/kg -0.9 K 0 % 0 % 0 % 0 m²/s² 0 0 0.66 95
 05:27     21:23    Daglengte: 15:56 Zondag 23 Jun
00:00 115 J/kg -0.3 K 0 % 0 % 0 % 0 m²/s² 0 0 2.19 80
01:00 68 J/kg -0.4 K 0 % 0 % 0 % 0 m²/s² 0 0 1.85 80
02:00 0 J/kg -0.2 K 0 % 0 % 0 % 0 m²/s² 0 0 1.99 45
03:00 0 J/kg 0.0 K 0 % 0 % 0 % 0 m²/s² 0 0 13.83
Temp Baro Wind Neerslag
  EWN Forecast EWN WRFDA DWD ICON FMI HIRLAM MET Norway GFS
 05:27     21:22    Daglengte: 15:55 Vandaag
05:00 16.6° 1013.7 hPa 3.2 m/s 13.3 mm 15.3° 1011.2 hPa 4.0 m/s 9.7 mm 15.5° 1013.7 hPa 1.7 m/s 0.9 mm 17.0° 1014.8 hPa 4.0 m/s 0.0 mm 17.0° 1013.6 hPa 3.4 m/s 0.5 mm 14.7° 1014.5 hPa 1.4 m/s
08:00 17.3° 1014.5 hPa 1.6 m/s 0.0 mm 18.4° 1012.9 hPa 2.7 m/s 14.5 mm 17.4° 1014.3 hPa 0.9 m/s 0.1 mm 16.7° 1015.4 hPa 3.1 m/s 0.0 mm 17.3° 1014.9 hPa 0.5 m/s 0.0 mm 16.8° 1014.8 hPa 1.0 m/s
11:00 18.8° 1014.8 hPa 1.4 m/s 3.3 mm 20.4° 1012.8 hPa 2.8 m/s 14.5 mm 18.4° 1015.6 hPa 1.6 m/s 0.5 mm 19.6° 1014.7 hPa 1.4 m/s 0.0 mm 18.5° 1015.0 hPa 0.7 m/s 4.5 mm 17.9° 1014.7 hPa 3.3 m/s
14:00 18.5° 1014.8 hPa 2.4 m/s 5.6 mm 15.6° 1013.6 hPa 6.2 m/s 18.5 mm 18.0° 1015.7 hPa 2.3 m/s 2.9 mm 20.4° 1014.3 hPa 2.2 m/s 0.0 mm 18.5° 1014.9 hPa 2.2 m/s 1.5 mm 18.3° 1015.1 hPa 1.2 m/s
17:00 19.9° 1014.6 hPa 1.7 m/s 7.1 mm 19.8° 1013.5 hPa 1.3 m/s 26.9 mm 18.2° 1015.1 hPa 2.7 m/s 3.3 mm 20.7° 1014.1 hPa 1.5 m/s 0.0 mm 20.1° 1014.7 hPa 1.1 m/s 4.3 mm 19.7° 1014.5 hPa 1.9 m/s
20:00 18.7° 1015.2 hPa 1.3 m/s 2.6 mm 20.0° 1013.8 hPa 1.4 m/s 27.0 mm 18.0° 1015.9 hPa 1.1 m/s 0.1 mm 18.9° 1014.8 hPa 1.9 m/s 0.0 mm 18.7° 1015.3 hPa 0.4 m/s 3.2 mm 18.6° 1015.4 hPa 0.7 m/s
23:00 15.7° 1016.5 hPa 1.4 m/s 2.1 mm 15.6° 1015.0 hPa 2.5 m/s 27.2 mm 15.5° 1016.9 hPa 1.1 m/s 0.1 mm 16.8° 1016.9 hPa 1.6 m/s 0.0 mm 15.3° 1016.6 hPa 1.0 m/s 0.0 mm 15.8° 1016.8 hPa 2.2 m/s
 05:27     21:23    Daglengte: 15:56 Morgen
02:00 14.5° 1017.0 hPa 1.3 m/s 0.0 mm 14.1° 1015.4 hPa 2.2 m/s 27.2 mm 14.2° 1017.4 hPa 1.3 m/s 0.0 mm 15.4° 1017.1 hPa 0.9 m/s 0.0 mm 14.3° 1017.0 hPa 0.7 m/s 0.0 mm 14.3° 1017.2 hPa 1.5 m/s
05:00 14.0° 1017.3 hPa 1.2 m/s 0.0 mm 13.7° 1015.3 hPa 0.7 m/s 27.2 mm 13.1° 1017.8 hPa 1.3 m/s 0.0 mm 13.8° 1017.4 hPa 1.4 m/s 0.0 mm 14.3° 1016.9 hPa 0.4 m/s 0.0 mm 12.7° 1017.4 hPa 0.9 m/s
08:00 16.3° 1017.8 hPa 0.7 m/s 0.0 mm 16.4° 1015.9 hPa 0.9 m/s 27.2 mm 16.3° 1018.1 hPa 0.2 m/s 0.0 mm 17.5° 1016.5 hPa 0.7 m/s 0.0 mm 16.3° 1018.0 hPa 0.5 m/s 0.0 mm 15.4° 1017.8 hPa 0.8 m/s
11:00 18.2° 1018.0 hPa 1.9 m/s 5.6 mm 19.5° 1016.0 hPa 2.4 m/s 27.2 mm 18.0° 1018.5 hPa 1.5 m/s 0.5 mm 22.1° 1014.5 hPa 2.8 m/s 0.0 mm 17.9° 1018.5 hPa 1.3 m/s 2.9 mm 17.8° 1017.6 hPa 1.8 m/s
14:00 19.2° 1017.4 hPa 2.4 m/s 6.4 mm 21.4° 1014.8 hPa 2.9 m/s 27.2 mm 19.4° 1018.1 hPa 2.2 m/s 0.5 mm 25.7° 1011.6 hPa 2.9 m/s 0.0 mm 17.4° 1018.4 hPa 1.1 m/s 5.8 mm 21.0° 1016.7 hPa 2.4 m/s
17:00 18.9° 1016.8 hPa 1.7 m/s 6.3 mm 16.9° 1014.7 hPa 2.8 m/s 30.6 mm 18.6° 1017.6 hPa 1.2 m/s 0.8 mm 23.6° 1011.0 hPa 1.4 m/s 0.0 mm 18.5° 1018.1 hPa 1.6 m/s 3.3 mm 19.3° 1016.7 hPa 2.8 m/s
20:00 17.8° 1017.1 hPa 1.0 m/s 8.8 mm 16.2° 1013.5 hPa 4.5 m/s 36.0 mm 17.4° 1018.0 hPa 0.7 m/s 2.1 mm 22.0° 1010.5 hPa 0.7 m/s 0.0 mm 17.7° 1018.4 hPa 0.3 m/s 1.6 mm 16.7° 1017.2 hPa 2.0 m/s
23:00 15.8° 1018.3 hPa 0.9 m/s 3.6 mm 15.5° 1017.1 hPa 0.9 m/s 41.6 mm 15.4° 1018.3 hPa 0.5 m/s 0.1 mm 15.8° 1019.1 hPa 0.9 m/s 0.0 mm 14.9° 1018.5 hPa 1.0 m/s
 05:27     21:23    Daglengte: 15:56 Zaterdag 22 Jun
02:00 15.0° 1017.4 hPa 0.9 m/s 0.0 mm 14.3° 1013.1 hPa 2.5 m/s 54.5 mm 15.0° 1017.9 hPa 0.8 m/s 0.0 mm 15.7° 1018.4 hPa 0.5 m/s 0.0 mm 13.7° 1017.7 hPa 1.2 m/s
05:00 14.5° 1016.6 hPa 1.1 m/s 0.0 mm 15.3° 1012.8 hPa 3.8 m/s 54.7 mm 14.1° 1017.3 hPa 0.5 m/s 0.0 mm 14.6° 1017.3 hPa 0.9 m/s 0.0 mm 12.2° 1016.8 hPa 1.1 m/s
08:00 15.9° 1016.5 hPa 0.6 m/s 0.0 mm 17.3° 1013.0 hPa 0.4 m/s 57.4 mm 15.3° 1017.2 hPa 0.9 m/s 0.0 mm 16.1° 1017.2 hPa 0.4 m/s 0.0 mm 13.9° 1017.2 hPa 0.3 m/s
11:00 17.8° 1016.1 hPa 0.9 m/s 0.0 mm 19.2° 1012.9 hPa 1.6 m/s 59.0 mm 17.8° 1016.2 hPa 0.9 m/s 0.0 mm 17.6° 1016.7 hPa 0.8 m/s 14.5° 1017.0 hPa 1.6 m/s
14:00 18.6° 1015.8 hPa 1.5 m/s 16.1 mm 18.2° 1012.6 hPa 2.8 m/s 64.1 mm 18.2° 1016.2 hPa 1.5 m/s 2.3 mm 19.1° 1016.1 hPa 1.2 m/s 16.5° 1016.7 hPa 2.1 m/s
17:00 18.1° 1015.6 hPa 1.6 m/s 26.8 mm 20.0° 1012.4 hPa 3.8 m/s 70.4 mm 18.0° 1015.4 hPa 0.6 m/s 4.9 mm 17.8° 1016.4 hPa 1.5 m/s 18.7° 1016.2 hPa 3.5 m/s
20:00 16.9° 1016.3 hPa 1.7 m/s 28.7 mm 19.1° 1013.2 hPa 2.3 m/s 72.1 mm 16.9° 1017.1 hPa 0.9 m/s 7.0 mm 16.4° 1016.6 hPa 1.8 m/s 17.0° 1017.2 hPa 2.3 m/s
23:00 15.9° 1017.1 hPa 1.8 m/s 26.4 mm 16.7° 1014.5 hPa 1.9 m/s 72.1 mm 15.7° 1017.6 hPa 0.8 m/s 3.5 mm 15.8° 1017.3 hPa 2.0 m/s 14.1° 1018.2 hPa 1.5 m/s
 05:27     21:23    Daglengte: 15:56 Zondag 23 Jun
02:00 15.1° 1017.5 hPa 2.0 m/s 24.5 mm 14.6° 1014.0 hPa 2.3 m/s 72.8 mm 15.1° 1017.7 hPa 0.6 m/s 0.4 mm 15.2° 1018.0 hPa 2.2 m/s 14.1° 1018.3 hPa 0.3 m/s
05:00 15.3° 1018.6 hPa 1.3 m/s 31.2 mm 15.5° 1018.7 hPa 1.3 m/s 13.3° 1018.3 hPa 1.0 m/s 31.2 mm
08:00 15.5° 1019.0 hPa 0.9 m/s 31.2 mm 15.6° 1019.0 hPa 0.9 m/s 14.4° 1018.4 hPa 0.7 m/s 31.2 mm
11:00 18.0° 1019.0 hPa 1.7 m/s 31.2 mm 17.9° 1019.1 hPa 1.7 m/s 19.0° 1018.0 hPa 1.8 m/s 31.2 mm
14:00 20.3° 1019.0 hPa 2.5 m/s 31.2 mm 20.2° 1019.2 hPa 2.5 m/s 21.8° 1017.1 hPa 2.2 m/s 31.2 mm
17:00 20.3° 1019.0 hPa 2.1 m/s 31.2 mm 20.0° 1019.2 hPa 2.1 m/s 23.2° 1016.6 hPa 2.2 m/s 31.2 mm
20:00 20.0° 1019.2 hPa 1.7 m/s 31.2 mm 19.9° 1019.3 hPa 1.7 m/s 21.5° 1018.2 hPa 1.7 m/s 31.2 mm
23:00 17.3° 1019.6 hPa 1.2 m/s 31.2 mm 17.4° 1019.5 hPa 1.2 m/s 16.7° 1020.4 hPa 1.0 m/s 31.2 mm
 05:28     21:23    Daglengte: 15:55 Maandag 24 Jun
02:00 14.8° 1019.8 hPa 0.7 m/s 31.2 mm 14.8° 1019.7 hPa 0.7 m/s 15.3° 1020.4 hPa 1.2 m/s 31.2 mm
05:00 16.0° 1019.9 hPa 0.5 m/s 31.2 mm 16.1° 1019.8 hPa 0.5 m/s 14.1° 1020.4 hPa 0.7 m/s 31.2 mm
08:00 17.5° 1020.0 hPa 0.3 m/s 31.2 mm 17.5° 1019.9 hPa 0.3 m/s 17.3° 1021.1 hPa 0.4 m/s 31.2 mm
11:00 20.8° 1020.1 hPa 1.2 m/s 31.2 mm 20.7° 1020.1 hPa 1.1 m/s 21.6° 1020.1 hPa 1.3 m/s 31.2 mm
14:00 24.0° 1020.2 hPa 2.0 m/s 31.2 mm 23.9° 1020.3 hPa 2.0 m/s 25.6° 1019.5 hPa 1.5 m/s 31.2 mm
17:00 23.8° 1020.3 hPa 1.4 m/s 31.2 mm 23.5° 1020.3 hPa 1.3 m/s 26.6° 1019.5 hPa 2.5 m/s 31.2 mm
20:00 23.2° 1020.4 hPa 0.7 m/s 31.2 mm 23.2° 1020.4 hPa 0.6 m/s 23.5° 1020.3 hPa 1.3 m/s 31.2 mm
23:00 20.4° 1021.0 hPa 0.8 m/s 31.2 mm 20.5° 1020.8 hPa 0.8 m/s 19.0° 1022.1 hPa 1.1 m/s 31.2 mm
 05:28     21:23    Daglengte: 15:55 Dinsdag 25 Jun
02:00 17.8° 1021.4 hPa 0.9 m/s 31.2 mm 17.8° 1021.3 hPa 0.9 m/s 17.3° 1022.3 hPa 0.9 m/s 31.2 mm
05:00 18.2° 1021.6 hPa 0.8 m/s 31.2 mm 18.4° 1021.6 hPa 0.8 m/s 15.9° 1021.8 hPa 0.6 m/s 31.2 mm
08:00 19.0° 1021.9 hPa 0.7 m/s 31.2 mm 19.0° 1021.9 hPa 0.7 m/s 18.9° 1021.5 hPa 0.6 m/s 31.2 mm
11:00 22.5° 1021.8 hPa 1.3 m/s 31.2 mm 22.4° 1022.0 hPa 1.4 m/s 23.6° 1020.5 hPa 1.3 m/s 31.2 mm
14:00 25.9° 1021.8 hPa 1.9 m/s 31.2 mm 25.8° 1022.0 hPa 2.0 m/s 27.5° 1020.2 hPa 1.0 m/s 31.2 mm
17:00 25.6° 1021.7 hPa 1.2 m/s 31.2 mm 25.4° 1021.9 hPa 1.2 m/s 28.8° 1020.0 hPa 0.9 m/s 31.2 mm
20:00 25.0° 1021.6 hPa 0.6 m/s 31.2 mm 24.9° 1021.7 hPa 0.5 m/s 25.9° 1020.9 hPa 1.7 m/s 31.2 mm
23:00 21.6° 1021.8 hPa 0.8 m/s 31.2 mm 21.7° 1021.7 hPa 0.8 m/s 20.7° 1022.9 hPa 0.9 m/s 31.2 mm
 05:28     21:23    Daglengte: 15:55 Woensdag 26 Jun
02:00 18.6° 1021.7 hPa 1.0 m/s 31.2 mm 18.5° 1021.6 hPa 1.0 m/s 19.2° 1022.8 hPa 1.0 m/s 31.2 mm
05:00 19.3° 1021.7 hPa 0.9 m/s 31.2 mm 19.4° 1021.7 hPa 0.9 m/s 17.8° 1022.3 hPa 0.7 m/s 31.2 mm
08:00 20.3° 1021.7 hPa 0.8 m/s 31.2 mm 20.3° 1021.7 hPa 0.8 m/s 20.7° 1021.9 hPa 0.5 m/s 31.2 mm
11:00 24.1° 1021.5 hPa 1.2 m/s 31.2 mm 23.9° 1021.6 hPa 1.1 m/s 25.8° 1020.8 hPa 1.2 m/s 31.2 mm
14:00 27.6° 1021.4 hPa 1.5 m/s 31.2 mm 27.5° 1021.5 hPa 1.5 m/s 28.5° 1019.9 hPa 1.1 m/s 31.2 mm
17:00 27.1° 1021.0 hPa 1.1 m/s 31.2 mm 26.9° 1021.2 hPa 1.1 m/s 30.0° 1018.9 hPa 0.9 m/s 31.2 mm
20:00 26.2° 1020.8 hPa 0.8 m/s 31.2 mm 26.2° 1020.9 hPa 0.8 m/s 26.3° 1019.3 hPa 0.8 m/s 31.2 mm
23:00 22.7° 1020.7 hPa 1.0 m/s 31.2 mm 22.8° 1020.7 hPa 1.0 m/s 21.6° 1020.2 hPa 1.6 m/s 31.2 mm
 05:29     21:23    Daglengte: 15:54 Donderdag 27 Jun
02:00 19.4° 1020.4 hPa 1.1 m/s 31.2 mm 19.3° 1020.5 hPa 1.1 m/s 20.0° 1019.8 hPa 1.7 m/s 31.2 mm
08:00 23.0° 1020.3 hPa 1.4 m/s 31.2 mm 23.1° 1020.4 hPa 1.4 m/s 22.3° 1018.8 hPa 0.9 m/s 31.2 mm
14:00 29.5° 1019.7 hPa 1.4 m/s 31.2 mm 29.5° 1020.0 hPa 1.4 m/s 30.0° 1016.6 hPa 1.1 m/s 31.2 mm
20:00 26.8° 1018.7 hPa 0.6 m/s 31.2 mm 26.7° 1019.0 hPa 0.6 m/s 27.9° 1015.5 hPa 0.4 m/s 31.2 mm
 05:29     21:23    Daglengte: 15:54 Vrijdag 28 Jun
02:00 21.1° 1018.8 hPa 1.2 m/s 31.2 mm 21.1° 1019.0 hPa 1.1 m/s 21.5° 1016.6 hPa 2.2 m/s 31.2 mm
08:00 24.2° 1018.3 hPa 1.2 m/s 31.7 mm 24.3° 1018.5 hPa 1.2 m/s 23.3° 1016.0 hPa 1.1 m/s 31.7 mm
14:00 30.1° 1017.0 hPa 1.9 m/s 32.9 mm 30.2° 1017.3 hPa 1.9 m/s 29.5° 1014.3 hPa 1.5 m/s 32.9 mm
20:00 27.3° 1015.5 hPa 0.5 m/s 36.8 mm 27.5° 1015.6 hPa 0.4 m/s 25.1° 1014.3 hPa 2.1 m/s 36.8 mm
 05:30     21:23    Daglengte: 15:53 Zaterdag 29 Jun
02:00 21.8° 1015.4 hPa 1.0 m/s 43.5 mm 22.0° 1015.3 hPa 1.0 m/s 19.5° 1016.8 hPa 0.7 m/s 43.5 mm
08:00 20.6° 1016.5 hPa 0.5 m/s 45.1 mm 20.6° 1016.5 hPa 0.5 m/s 45.1 mm
14:00 26.6° 1015.1 hPa 2.0 m/s 46.6 mm 26.6° 1015.1 hPa 2.0 m/s 46.6 mm
20:00 25.4° 1015.1 hPa 0.5 m/s 48.8 mm 25.4° 1015.1 hPa 0.5 m/s 48.8 mm
 05:30     21:23    Daglengte: 15:53 Zondag 30 Jun
02:00 16.6° 1014.9 hPa 1.4 m/s 0.6 mm
08:00 19.1° 1015.1 hPa 1.2 m/s 0.2 mm
14:00 27.3° 1013.7 hPa 1.9 m/s 0.6 mm
20:00 21.8° 1014.2 hPa 1.3 m/s 1.8 mm
 05:31     21:23    Daglengte: 15:52 Maandag 01 Jul
02:00 14.7° 1015.2 hPa 1.0 m/s 0.7 mm
08:00 16.5° 1015.0 hPa 0.9 m/s 0.3 mm
14:00 23.2° 1013.7 hPa 2.2 m/s 0.6 mm
20:00 18.8° 1014.0 hPa 1.3 m/s 1.6 mm
 05:32     21:22    Daglengte: 15:50 Dinsdag 02 Jul
02:00 11.5° 1015.1 hPa 0.5 m/s 0.8 mm
08:00 13.8° 1014.8 hPa 0.8 m/s 0.5 mm
14:00 19.4° 1013.4 hPa 2.2 m/s 1.0 mm
20:00 15.9° 1013.9 hPa 1.5 m/s 2.2 mm
 05:32     21:22    Daglengte: 15:50 Woensdag 03 Jul
02:00 9.0° 1015.2 hPa 0.7 m/s 1.7 mm
08:00 12.0° 1014.9 hPa 0.5 m/s 0.4 mm
14:00 18.8° 1013.2 hPa 1.9 m/s 0.7 mm
20:00 15.6° 1013.6 hPa 1.5 m/s 1.6 mm
 05:33     21:22    Daglengte: 15:49 Donderdag 04 Jul
02:00 8.5° 1014.6 hPa 0.8 m/s 2.1 mm
08:00 11.4° 1014.6 hPa 0.7 m/s 1.3 mm
14:00 18.1° 1013.7 hPa 1.8 m/s 1.0 mm
20:00 15.1° 1014.5 hPa 1.4 m/s 1.2 mm
 05:34     21:21    Daglengte: 15:47 Vrijdag 05 Jul
02:00 8.3° 1016.1 hPa 1.1 m/s 0.7 mm
FMI Hirlam - 7.5 km EWN WRFDA - 12 km DWD ICON - 7 km GFS - 25 km Basiskaart






























































Updatetijd (Europe/Amsterdam) Resolutie Lengte Stap
FMI Hirlam 01:15, 07:15, 13:15, 19:15 7.5 km 49h 1h
EWN WRFDA 22:15, 04:15, 10:15, 16:15 12 km 73h 1h
DWD ICON 23:45, 05:45, 11:45, 17:45 7 km 75h 1h
GFS 02:30, 08:30, 14:30, 20:30 25 km 237h 3h
30+ mm
25-30 mm
20-25 mm
15-20 mm
10-15 mm
6-10 mm
4-6 mm
2-4 mm
1-2 mm
0.5-1 mm
0.2-0.5 mm
0.1-0.2 mm
30+ mm
25-30 mm
20-25 mm
15-20 mm
10-15 mm
6-10 mm
4-6 mm
2-4 mm
1-2 mm
0.5-1 mm
0.2-0.5 mm
0.1-0.2 mm
Sneeuwval
Natte sneeuw
Hagel
Vorst
30+ mm
25-30 mm
20-25 mm
15-20 mm
10-15 mm
6-10 mm
4-6 mm
2-4 mm
1-2 mm
0.5-1 mm
0.2-0.5 mm
0.1-0.2 mm
Sneeuwval
Natte sneeuw
Hagel
Vorst
Onweer
50 mm
40 mm
30 mm
26 mm
22 mm
18 mm
14 mm
10 mm
9 mm
8 mm
7 mm
6 mm
5 mm
4.5 mm
4 mm
3.5 mm
3 mm
2.5 mm
2 mm
1.5 mm
1 mm
0.8 mm
0.6 mm
0.4 mm
0.2 mm
0.05 mm
35°
30°
25°
20°
15°
10°
-5°
-10°
-15°
-20°
-25°
-30°
-35°
120> km/h
105 km/h
90 km/h
75 km/h
60 km/h
50 km/h
40 km/h
30 km/h
20 km/h
10 km/h
0 km/h
2600 J/kg
2400 J/kg
2200 J/kg
2000 J/kg
1800 J/kg
1600 J/kg
1400 J/kg
1200 J/kg
1000 J/kg
800 J/kg
600 J/kg
400 J/kg
200 J/kg
70 dBZ
65 dBZ
60 dBZ
55 dBZ
50 dBZ
45 dBZ
40 dBZ
35 dBZ
30 dBZ
25 dBZ
20 dBZ
15 dBZ
10 dBZ
5 dBZ
-1 K
-2 K
-3 K
-4 K
-5 K
-6 K
-7 K
-8 K
-9 K
950 m²/s²
900 m²/s²
850 m²/s²
800 m²/s²
750 m²/s²
700 m²/s²
650 m²/s²
600 m²/s²
550 m²/s²
500 m²/s²
450 m²/s²
400 m²/s²
350 m²/s²
300 m²/s²
250 m²/s²
200 m²/s²
150 m²/s²
100 m²/s²
46 m/s
44 m/s
42 m/s
40 m/s
38 m/s
36 m/s
34 m/s
32 m/s
30 m/s
28 m/s
26 m/s
24 m/s
22 m/s
20 m/s
16 m/s
12 m/s
8 m/s
4 m/s
30 m/s
28 m/s
26 m/s
24 m/s
22 m/s
20 m/s
18 m/s
16 m/s
14 m/s
12 m/s
10 m/s
8 m/s
6 m/s
4 m/s
2 m/s
3.0
2.8
2.6
2.4
2.2
2.0
1.8
1.6
1.4
1.2
1.0
0.8
0.6
0.4
0.2
15
14
13
12
11
10
9
8
7
6
5
4
3
2
1
90%
80%
70%
60%
50%
40%
30%
20%
10%
42
40
38
36
34
32
30
28
26
24
22
20
18
16
14
12
90+ cm
80-90 cm
70-80 cm
60-70 cm